Meteo pe oră la Bolshie Karmaly

Astăzi, 12 Mai, Miercuri

Timp Temperatura Precipitaţii Vânt Presiune Umiditate
00:00 +15°C° 0 mm 1 m/s 758 mmHg 74%
01:00 +15°C° 0 mm 2 m/s 758 mmHg 72%
02:00 +15°C° 0 mm 2 m/s 758 mmHg 71%
03:00 +15°C° 0 mm 2 m/s 758 mmHg 69%
04:00 +15°C° 0 mm 2 m/s 758 mmHg 69%
05:00 +15°C° 0 mm 2 m/s 758 mmHg 68%
06:00 +16°C° 0 mm 2 m/s 758 mmHg 68%
07:00 +17°C° 0 mm 2 m/s 758 mmHg 64%
08:00 +19°C° 0 mm 2 m/s 758 mmHg 59%
09:00 +20°C° 0 mm 2 m/s 759 mmHg 55%
10:00 +21°C° 0 mm 2 m/s 758 mmHg 52%
11:00 +23°C° 0 mm 2 m/s 758 mmHg 48%
12:00 +24°C° 0 mm 2 m/s 758 mmHg 45%
13:00 +24°C° 0 mm 3 m/s 758 mmHg 45%
14:00 +24°C° 0 mm 3 m/s 758 mmHg 45%
15:00 +23°C° 0 mm 4 m/s 758 mmHg 45%
16:00 +22°C° 0 mm 3 m/s 758 mmHg 50%
17:00 +21°C° 0 mm 3 m/s 758 mmHg 56%
18:00 +20°C° 0 mm 3 m/s 757 mmHg 61%
19:00 +19°C° 0 mm 2 m/s 757 mmHg 61%
20:00 +18°C° 0 mm 2 m/s 758 mmHg 62%
21:00 +17°C° 0 mm 2 m/s 758 mmHg 62%
22:00 +17°C° 0 mm 2 m/s 758 mmHg 62%
23:00 +16°C° 0 mm 2 m/s 758 mmHg 62%

Mâine, 13 Mai, Joi

Timp Temperatura Precipitaţii Vânt Presiune Umiditate
00:00 +16°C° 0 mm 2 m/s 758 mmHg 62%
01:00 +16°C° 0 mm 2 m/s 758 mmHg 63%
02:00 +15°C° 0 mm 2 m/s 758 mmHg 65%
03:00 +15°C° 0 mm 2 m/s 758 mmHg 66%
04:00 +15°C° 0 mm 2 m/s 758 mmHg 66%
05:00 +15°C° 0 mm 2 m/s 758 mmHg 66%
06:00 +14°C° 0 mm 3 m/s 758 mmHg 66%
07:00 +17°C° 0 mm 3 m/s 758 mmHg 62%
08:00 +18°C° 0 mm 4 m/s 758 mmHg 57%
09:00 +20°C° 0 mm 4 m/s 758 mmHg 53%
10:00 +20°C° 0 mm 5 m/s 757 mmHg 52%
11:00 +21°C° 0 mm 5 m/s 757 mmHg 50%
12:00 +22°C° 0 mm 5 m/s 757 mmHg 49%
13:00 +22°C° 0 mm 5 m/s 757 mmHg 51%
14:00 +22°C° 0 mm 5 m/s 757 mmHg 52%
15:00 +22°C° 0 mm 5 m/s 756 mmHg 54%
16:00 +21°C° 0 mm 5 m/s 756 mmHg 57%
17:00 +20°C° 0 mm 5 m/s 756 mmHg 61%
18:00 +20°C° 0 mm 5 m/s 755 mmHg 65%
19:00 +19°C° 0 mm 4 m/s 755 mmHg 68%
20:00 +18°C° 0 mm 4 m/s 755 mmHg 71%
21:00 +17°C° 0 mm 4 m/s 755 mmHg 74%
22:00 +15°C° 0.1 mm 4 m/s 755 mmHg 75%
23:00 +15°C° 0.1 mm 4 m/s 755 mmHg 76%

Poimâine, 14 Mai, Vineri

Timp Temperatura Precipitaţii Vânt Presiune Umiditate
00:00 +14°C° 0.1 mm 3 m/s 755 mmHg 77%
01:00 +14°C° 0.2 mm 3 m/s 755 mmHg 77%
02:00 +14°C° 0.2 mm 3 m/s 755 mmHg 78%
03:00 +13°C° 0.2 mm 3 m/s 755 mmHg 78%
04:00 +14°C° 0 mm 3 m/s 755 mmHg 76%
05:00 +14°C° 0 mm 3 m/s 755 mmHg 74%
06:00 +16°C° 0 mm 3 m/s 755 mmHg 73%
07:00 +17°C° 0 mm 3 m/s 755 mmHg 68%
08:00 +19°C° 0 mm 4 m/s 755 mmHg 64%
09:00 +20°C° 0 mm 4 m/s 755 mmHg 60%
10:00 +21°C° 0 mm 5 m/s 755 mmHg 56%
11:00 +22°C° 0 mm 5 m/s 755 mmHg 52%
12:00 +23°C° 0 mm 5 m/s 755 mmHg 49%
13:00 +25°C° 0 mm 5 m/s 755 mmHg 47%
14:00 +26°C° 0 mm 5 m/s 755 mmHg 46%
15:00 +26°C° 0 mm 5 m/s 755 mmHg 45%
16:00 +25°C° 0 mm 5 m/s 755 mmHg 48%
17:00 +23°C° 0 mm 4 m/s 754 mmHg 51%
18:00 +22°C° 0 mm 4 m/s 754 mmHg 55%
19:00 +21°C° 0 mm 4 m/s 754 mmHg 57%
20:00 +20°C° 0 mm 4 m/s 754 mmHg 59%
21:00 +18°C° 0 mm 4 m/s 754 mmHg 62%
22:00 +18°C° 0 mm 4 m/s 754 mmHg 62%
23:00 +17°C° 0 mm 4 m/s 753 mmHg 62%

15 Mai, Sâmbătă

Timp Temperatura Precipitaţii Vânt Presiune Umiditate
00:00 +17°C° 0 mm 4 m/s 753 mmHg 62%
01:00 +15°C° 0 mm 4 m/s 753 mmHg 62%
02:00 +16°C° 0 mm 3 m/s 753 mmHg 63%
03:00 +14°C° 0 mm 3 m/s 753 mmHg 63%
04:00 +16°C° 0 mm 3 m/s 753 mmHg 63%
05:00 +16°C° 0 mm 3 m/s 753 mmHg 63%
06:00 +17°C° 0 mm 3 m/s 753 mmHg 64%
07:00 +19°C° 0 mm 4 m/s 753 mmHg 59%
08:00 +20°C° 0 mm 5 m/s 753 mmHg 55%
09:00 +22°C° 0 mm 5 m/s 753 mmHg 50%
10:00 +23°C° 0 mm 5 m/s 753 mmHg 47%
11:00 +24°C° 0 mm 6 m/s 753 mmHg 43%
12:00 +26°C° 0 mm 6 m/s 754 mmHg 40%
13:00 +27°C° 0 mm 6 m/s 753 mmHg 40%
14:00 +27°C° 0 mm 6 m/s 753 mmHg 40%
15:00 +27°C° 0 mm 6 m/s 753 mmHg 41%
16:00 +26°C° 0 mm 5 m/s 753 mmHg 44%
17:00 +25°C° 0 mm 4 m/s 753 mmHg 48%
18:00 +23°C° 0 mm 4 m/s 752 mmHg 52%
19:00 +21°C° 0 mm 4 m/s 752 mmHg 53%
20:00 +20°C° 0 mm 4 m/s 752 mmHg 55%
21:00 +18°C° 0 mm 3 m/s 752 mmHg 56%
22:00 +18°C° 0 mm 3 m/s 752 mmHg 56%
23:00 +18°C° 0 mm 3 m/s 752 mmHg 56%

16 Mai, Duminică

Timp Temperatura Precipitaţii Vânt Presiune Umiditate
00:00 +17°C° 0 mm 3 m/s 752 mmHg 56%
01:00 +17°C° 0 mm 3 m/s 752 mmHg 58%
02:00 +17°C° 0 mm 3 m/s 752 mmHg 60%
03:00 +16°C° 0 mm 3 m/s 752 mmHg 62%
04:00 +17°C° 0 mm 3 m/s 752 mmHg 63%
05:00 +18°C° 0 mm 3 m/s 752 mmHg 65%
06:00 +19°C° 0 mm 3 m/s 752 mmHg 66%
07:00 +20°C° 0 mm 4 m/s 752 mmHg 61%
08:00 +22°C° 0 mm 5 m/s 752 mmHg 56%
09:00 +23°C° 0 mm 6 m/s 752 mmHg 51%
10:00 +24°C° 0 mm 6 m/s 752 mmHg 48%
11:00 +26°C° 0 mm 6 m/s 752 mmHg 46%
12:00 +27°C° 0 mm 6 m/s 752 mmHg 43%
13:00 +27°C° 0 mm 6 m/s 752 mmHg 42%
14:00 +28°C° 0 mm 6 m/s 752 mmHg 42%
15:00 +28°C° 0 mm 6 m/s 752 mmHg 41%
16:00 +27°C° 0 mm 5 m/s 751 mmHg 45%
17:00 +26°C° 0 mm 4 m/s 751 mmHg 48%
18:00 +25°C° 0 mm 4 m/s 751 mmHg 52%
19:00 +23°C° 0 mm 4 m/s 751 mmHg 53%
20:00 +21°C° 0 mm 3 m/s 751 mmHg 55%
21:00 +20°C° 0 mm 3 m/s 751 mmHg 56%
22:00 +19°C° 0 mm 3 m/s 751 mmHg 57%
23:00 +19°C° 0 mm 3 m/s 751 mmHg 58%

17 Mai, Luni

Timp Temperatura Precipitaţii Vânt Presiune Umiditate
00:00 +18°C° 0 mm 3 m/s 752 mmHg 59%
01:00 +18°C° 0 mm 2 m/s 752 mmHg 61%
02:00 +18°C° 0 mm 2 m/s 752 mmHg 62%
03:00 +18°C° 0 mm 1 m/s 752 mmHg 64%
04:00 +19°C° 0 mm 1 m/s 752 mmHg 64%
05:00 +20°C° 0 mm 1 m/s 753 mmHg 65%
06:00 +19°C° 0 mm 0 m/s 753 mmHg 65%
07:00 +20°C° 0 mm 0 m/s 753 mmHg 61%
08:00 +23°C° 0 mm 1 m/s 753 mmHg 57%
09:00 +25°C° 0 mm 1 m/s 753 mmHg 54%
10:00 +26°C° 0 mm 1 m/s 753 mmHg 51%
11:00 +27°C° 0 mm 1 m/s 753 mmHg 48%
12:00 +27°C° 0 mm 1 m/s 753 mmHg 45%
13:00 +28°C° 0 mm 1 m/s 752 mmHg 44%
14:00 +28°C° 0 mm 2 m/s 752 mmHg 43%
15:00 +28°C° 0 mm 2 m/s 752 mmHg 42%
16:00 +28°C° 0 mm 1 m/s 752 mmHg 46%
17:00 +27°C° 0 mm 1 m/s 752 mmHg 50%
18:00 +26°C° 0 mm 1 m/s 752 mmHg 54%
19:00 +25°C° 0 mm 1 m/s 752 mmHg 57%
20:00 +24°C° 0 mm 1 m/s 752 mmHg 60%
21:00 +23°C° 0 mm 1 m/s 752 mmHg 64%
22:00 +20°C° 0.1 mm 2 m/s 752 mmHg 70%
23:00 +19°C° 0.1 mm 2 m/s 752 mmHg 76%
Arată mai mult

Formular de consimțământ

Meteoprog și furnizorii noștri de servicii pot stoca și accesa date personale, precum cookies, identificatori de dispozitiv sau alte tehnologii similare pe dispozitivul dumneavoastră și procesa astfel de date pentru a personaliza conținutul și reclamele, dar și pentru a oferi caracteristici de social media și pentru a analiza traficul.

  • Stocarea și/sau accesarea informațiilor pe dispozitivul dumneavoastră

    Cookies, identificatori de dispozitiv sau alte informații pot fi stocate sau accesate pe dispozitiv în scopurile indicate mai sus.

  • Reclame și conținut personalizat, evaluarea reclamelor și a conținutului, informații despre audiențe și dezvoltarea produselor

    Reclamele și conținutul pot fi personalizate pe baza unui profil. Pot fi adăugate date suplimentare pentru a personaliza mai bine reclamele și conținutul. Performanța reclamelor și conținutului poate fi măsurată. Pot fi obținute informații despre utilizatorii care au văzut reclamele și conținutul. Aceste date pot fi utilizate pentru a dezvolta sau îmbunătăți experiența utilizatorilor, sistemele și software-ul.

Dând clic pe ‘Sunt de acord’, permiteți utilizarea cookie-urilor menționate, a identificatorilor de dispozitiv, balizelor web sau altor tehnologii similare. Setările pot fi modificate din browser-ul dispozitivului dumneavoastră.

În anumite scopuri, interesele legitime pot prima asupra consimțământului. Puteți citi mai multe informații în acest sens în Politica privind Confidențialitatea Datelor și Cookie.